Location: Newton_Old_St_Pauls
(35.6750°N, 81.2580°W)
Time: 11:02:13
(UTC-04:00)

Daily predictions for brighter satellites

Satellite Brightness Start Highest point End
(mag) Time Altitude Azimuth Time Altitude Azimuth Time Altitude Azimuth
Cosmos 1782 3.3 20:52:08 10° N 20:55:59 41° E 20:59:49 10° SSE
SEDSat Delta rocket 3.9 20:52:28 10° SW 20:56:40 31° SSE 21:00:29 10° ESE
Envisat 4.4 20:55:57 10° ESE 20:59:40 21° ENE 21:03:22 10° NNE
Cosmos 1844 Rocket 3.0 20:54:25 10° SSW 21:00:04 76° WNW 21:05:44 10° NNE
Cosmos 1825 3.4 20:59:03 10° SE 21:02:08 24° E 21:05:14 10° NE
FENGYUN 3A 3.7 20:57:08 10° SSE 21:02:31 79° ENE 21:07:55 10° N
Meteor 2-6 Rocket 4.5 20:58:31 10° N 21:04:20 58° E 21:09:59 10° SSE
Cosmos 2278 Rocket 2.3 20:59:24 10° S 21:04:54 54° ESE 21:10:25 10° NNE
Atlas Centaur 2 2.4 21:03:15 10° WSW 21:06:32 27° SSW 21:09:36 10° SE
ERS-1 Rocket 3.7 21:04:00 10° SE 21:08:35 37° ENE 21:13:10 10° N
COSMOS 2406 3.7 21:03:41 10° NNW 21:09:22 65° WSW 21:14:58 10° S
Cosmos 1844 3.9 21:05:53 10° SSW 21:11:38 83° WNW 21:17:28 10° NNE
ISS -1.0 21:09:47 10° W 21:12:37 27° NW 21:15:29 10° NNE
H-2A R/B 3.5 21:09:40 10° ESE 21:12:55 21° ENE 21:16:07 10° NNE
APEX 4.1 21:12:45 10° S 21:16:09 34° ESE 21:20:26 10° NE
Cosmos 2154 Rocket 4.1 21:11:09 10° SSE 21:17:10 56° E 21:23:12 10° NNE
Cosmos 1939 Rocket 3.9 21:15:00 11° SE 21:18:04 28° ENE 21:21:28 10° NNE
Cosmos 407 Rocket 3.5 21:14:05 10° NNW 21:19:24 86° ENE 21:24:44 10° SSE
Abrixas 2.7 21:18:23 10° SW 21:21:19 47° SE 21:24:16 10° ENE
YAOGAN 11 4.3 21:17:37 10° SSE 21:22:04 60° ENE 21:26:34 10° N
COSMOS 2487 3.3 21:20:10 10° N 21:23:31 36° ENE 21:25:58 16° SE
Cosmos 1238 Rocket 3.6 21:20:32 10° NNE 21:23:47 32° E 21:26:52 14° SE
SPOT 5 4.2 21:23:31 13° ESE 21:27:13 28° ENE 21:31:42 10° NNE
Cosmos 2082 Rocket 3.7 21:23:17 10° N 21:27:32 21° ENE 21:30:58 13° E
CENTAUR R/B 4.3 21:23:37 10° NW 21:30:57 40° WSW 21:38:30 10° S
Cosmos 1452 Rocket 3.9 21:27:01 10° SSW 21:32:15 69° WNW 21:37:32 10° NNE
Lacrosse 5 3.2 21:32:35 10° SSE 21:36:01 18° ESE 21:39:27 10° ENE
Cosmos 1184 Rocket 2.8 21:33:41 10° S 21:36:58 62° E 21:40:17 10° NNE
Intercosmos 25 4.0 21:38:00 22° SE 21:39:11 26° E 21:41:55 10° NE
Cosmos 1674 Rocket 4.4 21:37:07 10° NNW 21:41:26 52° W 21:45:42 10° S
Cosmos 2297 3.8 21:38:01 10° S 21:43:34 57° ESE 21:49:11 10° NNE
CZ-3A R/B 4.2 21:30:44 10° W 21:47:59 32° SSW 21:51:21 17° SSE
H-2A R/B 4.0 21:43:57 10° WSW 21:48:15 50° S 22:13:05 10° ESE
Meteor 2-13 Rocket 4.5 21:44:20 10° S 21:50:22 60° E 21:56:25 10° NNE
Okean 2 Rocket 3.0 21:47:12 10° S 21:51:33 66° E 21:55:56 10° NNE
Cosmos 1606 3.4 21:51:55 10° NNW 21:55:46 54° W 21:59:21 11° S
Cosmos 1782 Rocket 3.6 21:51:56 10° S 21:56:23 86° W 22:00:53 10° N
CZ-4 DEB 4.4 21:55:42 10° SSW 21:58:33 31° W 22:01:25 10° NNW
EO 1 Delta rocket 4.0 21:54:22 10° N 22:00:01 89° WNW 22:04:45 10° S
NOSS 8 (E) 4.4 21:57:23 10° SSW 22:00:50 58° ESE 22:04:19 10° NE
USA 229 DEB 4.4 21:56:22 10° NNW 22:03:05 42° NE 22:07:00 24° ESE
USA 229 4.4 21:56:29 10° NNW 22:03:11 42° NE 22:07:06 24° ESE
Cosmos 1242 Rocket 2.6 22:00:00 10° N 22:03:40 63° E 22:04:46 41° SE
Cosmos 1850 Rocket 4.1 22:01:38 10° N 22:06:56 64° ENE 22:09:25 31° SE
COS B Rocket 3.6 22:04:47 10° N 22:08:30 55° W 22:10:45 19° SSW
Elektron 3 4.5 22:07:06 10° NNW 22:10:06 56° ENE 22:11:16 39° ESE
ARGOS 3.9 22:09:05 28° ESE 22:10:47 35° ENE 22:15:35 10° N
YAOGAN 6 3.0 22:10:46 41° E 22:10:57 42° ENE 22:14:19 10° N
Nadezhda 3 Rocket 4.5 22:05:53 10° NNW 22:12:09 63° W 22:18:24 10° S
Lacrosse 5 rocket 1.2 22:08:31 10° SSW 22:12:25 51° SE 22:16:08 10° NE
Cosmos 2218 Rocket 4.1 22:08:10 20° SSE 22:12:33 59° E 22:18:50 10° NNE
GPS 2-05 Rocket1 2.8 22:09:24 10° W 22:13:08 83° S 22:13:49 57° ESE
OAO 3 Rocket 3.1 22:08:12 10° WSW 22:13:10 76° S 22:15:30 31° E
Cosmos 1975 Rocket 3.1 22:09:34 10° N 22:13:54 77° W 22:16:10 28° S
Cosmos 1408 4.3 22:10:37 10° SW 22:13:55 32° W 22:17:13 10° NNW
DNEPR-1 R/B 3.6 22:09:33 10° NNW 22:14:42 89° NE 22:16:17 41° SSE
PSLV R/B 3.5 22:16:18 51° NE 22:16:18 51° NE 22:18:49 10° N
CZ-4 R/B 4.4 22:16:03 10° NNE 22:20:06 35° E 22:20:06 35° E
Cosmos 1959 Rocket 4.4 22:16:51 23° S 22:20:49 70° E 22:26:53 10° NNE
CZ-4 SHROUD 3.4 22:23:32 60° NNE 22:23:32 60° NNE 22:26:13 10° N
SL-08 R/B 4.5 22:21:28 23° S 22:25:43 74° E 22:32:10 10° N
Cosmos 1536 Rocket 4.0 22:22:37 10° N 22:26:53 42° E 22:27:02 42° E
Cosmos 1331 Rocket 4.1 22:27:09 45° SE 22:27:47 48° ESE 22:32:43 10° NNE
Cosmos 1727 Rocket 4.3 22:22:47 10° N 22:28:45 49° E 22:30:27 39° ESE
Cosmos 1741 Rocket 4.0 22:23:54 10° NNW 22:29:09 82° WSW 22:31:03 40° S
NOSS 8 (H) 4.3 22:30:35 87° NNW 22:30:35 87° NNW 22:34:11 10° NNE
MetOp-A 4.1 22:31:17 37° S 22:33:31 82° WSW 22:38:54 10° NNW
OAO 1 Rocket 4.3 22:31:43 10° W 22:37:03 85° S 22:38:33 48° E
Cosmos 1110 Rocket 3.9 22:35:43 44° S 22:37:20 70° ESE 22:42:32 10° NNE
Envisat 4.1 22:35:07 19° SSW 22:38:21 40° W 22:43:08 10° NNW
Meteor 1-20 Rocket 4.2 22:39:25 51° SE 22:40:26 59° E 22:45:52 10° NNE
Cosmos 614 Rocket 4.1 22:36:40 10° NNW 22:41:43 67° WSW 22:43:08 45° SSW
SEDSat Delta rocket 3.7 22:38:15 10° WSW 22:41:22 38° SW 22:41:22 38° SW
SL-8 Rocket 4.4 22:38:03 12° SSW 22:43:44 63° W 22:49:56 10° N
Cosmos 1833 Rocket 2.6 22:38:21 10° NNW 22:43:58 72° ENE 22:45:06 56° SE
Terra 3.0 22:44:32 28° ENE 22:44:32 28° ENE 22:48:16 10° NNE
USA 245 3.3 22:46:36 70° NNW 22:46:36 70° NNW 22:50:23 10° NNW
H-2A R/B 3.8 22:46:49 19° SW 22:48:45 27° W 22:52:22 10° NW
Cosmos 2151 Rocket 4.4 22:56:55 35° SW 22:58:20 48° W 23:02:44 10° N
USA 234 4.1 22:54:18 10° ENE 22:58:06 31° E 22:58:06 31° E
Meteor 1-25 Rocket 4.4 22:58:34 40° SSW 23:00:44 76° W 23:06:35 10° N
Cosmos 1300 Rocket 4.1 23:04:46 51° NNE 23:04:46 51° NNE 23:08:13 10° N
SPOT 5 4.4 23:02:46 24° SW 23:05:04 33° W 23:09:53 10° NNW
CZ-4B R/B 4.0 23:01:57 10° N 23:06:41 52° WNW 23:08:19 35° SW
Cosmos 1486 Rocket 4.4 23:04:28 10° N 23:09:19 49° ENE 23:09:19 49° ENE
Cosmos 2082 Rocket 2.7 23:06:25 10° NNW 23:11:53 50° WSW 23:12:49 45° SW
Okean 1 4.4 23:07:51 10° N 23:10:39 42° N 23:10:39 42° N
Okean 1 Rocket 3.8 23:13:53 48° NNE 23:13:53 48° NNE 23:17:08 10° N
Cosmos 1812 4.0 23:12:38 10° N 23:15:11 39° NNW 23:15:11 39° NNW
Lacrosse 5 2.3 23:13:31 10° SW 23:18:32 59° NW 23:23:35 10° NNE
H-2A R/B 2.1 23:20:50 79° NNE 23:20:50 79° NNE 23:25:54 10° N
BREEZE-M DEB (TANK) 4.5 23:23:31 60° SE 23:23:45 60° SE 23:41:38 10° NE
Cosmos 1302 Rocket 4.2 23:32:20 68° NW 23:32:20 68° NW 23:37:15 10° NNE
Cosmos 1535 Rocket 4.4 23:37:20 78° ENE 23:37:20 78° ENE 23:43:32 10° N
Meteor 1-13 Rocket 4.4 23:38:17 10° N 23:43:51 77° NW 23:43:51 77° NW
ASTEX 1 4.1 23:40:37 10° N 23:44:25 52° NNW 23:44:25 52° NNW
Iridium 4 Rocket 4.2 23:44:33 10° N 23:49:23 57° NNE 23:49:23 57° NNE
Lacrosse 5 rocket 4.0 23:49:15 10° W 23:51:50 17° NW 23:54:22 10° N
